Regional Weather Roundup
Issued by NWS

Home | Current Version | Previous Version | Graphics & Text | Print | Product List | Glossary On
Versions: 1 2 3 4 5 6 7 8 9 10 11 12 13 14 15 16 17 18 19 20 21 22 23 24 25 26 27 28 29 30 31 32 33 34 35 36 37 38 39 40 41 42 43 44 45 46 47 48 49 50
000
ASUS43 KOAX 100602
RWRNE

WEATHER ROUNDUP FOR NEBRASKA
NATIONAL WEATHER SERVICE OMAHA NE
1200 AM CST WED FEB 10 2016

NOTES: SATELLITE DATA IS BEING USED TO AUGMENT CLOUD COVER ABOVE
       12000 FEET.
       "FAIR" INDICATES FEW OR NO CLOUDS BELOW 12,000 FEET WITH NO
       SIGNIFICANT WEATHER AND/OR OBSTRUCTIONS TO VISIBILITY.

  * THESE STATIONS DO NOT REPORT WEATHER SUCH AS RAIN...SNOW OR FOG.

NEZ001>004-019>022-054>056-100700-
NEBRASKA PANHANDLE

CITY           SKY/WX    TMP DP  RH WIND       PRES   REMARKS
SCOTTSBLUFF    CLEAR     33  26  75 CALM      30.16F
6HR MIN TEMP:  30; 6HR MAX TEMP:  47;

ALLIANCE       CLEAR     31  26  82 W12       30.10F WCI  22
6HR MIN TEMP:  31; 6HR MAX TEMP:  40;

CHADRON        CLEAR     33  27  78 W9        30.10F WCI  25
6HR MIN TEMP:  33; 6HR MAX TEMP:  47;

SIDNEY         CLEAR     38  26  62 W17       30.16F WCI  28
6HR MIN TEMP:  34; 6HR MAX TEMP:  41;

$$

NEZ057>060-069>072-079>082-100700-
SOUTHWEST NEBRASKA

CITY           SKY/WX    TMP DP  RH WIND       PRES   REMARKS
NORTH PLATTE   CLEAR     29  25  85 CALM      30.10F
6HR MIN TEMP:  28; 6HR MAX TEMP:  36;

IMPERIAL       CLEAR     35  27  72 W12       30.13F WCI  27
6HR MIN TEMP:  35; 6HR MAX TEMP:  42;

MCCOOK         CLOUDY    30  26  85 W9        30.13F WCI  22
6HR MIN TEMP:  29; 6HR MAX TEMP:  36;

$$

NEZ005>010-023>029-035>040-094-100700-
NORTH CENTRAL NEBRASKA

CITY           SKY/WX    TMP DP  RH WIND       PRES   REMARKS
VALENTINE      MOCLDY    31  27  85 SW10      30.04F WCI  22
6HR MIN TEMP:  31; 6HR MAX TEMP:  39;

AINSWORTH      CLOUDY    35  28  76 SW6       30.04F WCI  30
BROKEN BOW     CLOUDY    32  26  78 SW5       30.08F WCI  27
6HR MIN TEMP:  27; 6HR MAX TEMP:  32;

ORD            CLOUDY    27  22  81 CALM      30.09F
6HR MIN TEMP:  26; 6HR MAX TEMP:  29;

$$

NEZ041-046>049-061>064-073>077-083>087-100700-
SOUTH CENTRAL NEBRASKA

CITY           SKY/WX    TMP DP  RH WIND       PRES   REMARKS
GRAND ISLAND   CLOUDY    25  18  74 S10       30.14F WCI  15
6HR MIN TEMP:  21; 6HR MAX TEMP:  25;

HASTINGS       CLOUDY    26  18  71 S7        30.13F WCI  18
6HR MIN TEMP:  22; 6HR MAX TEMP:  26;

$$

NEZ011>018-030>034-042>045-100700-
NORTHEAST NEBRASKA

CITY           SKY/WX    TMP DP  RH WIND       PRES   REMARKS
NORFOLK        CLOUDY    26  17  68 S12       30.12F WCI  16
6HR MIN TEMP:  21; 6HR MAX TEMP:  26;

BLAIR          CLOUDY    19  14  79 S3        30.18S
COLUMBUS *     CLOUDY    27  10  50 SW9       30.15F WCI  17
$$

NEZ050>053-065>068-078-088>093-100700-
SOUTHEAST NEBRASKA

CITY           SKY/WX    TMP DP  RH WIND       PRES   REMARKS
LINCOLN        CLOUDY    23  15  71 S3        30.21F
6HR MIN TEMP:  21; 6HR MAX TEMP:  27;

OMAHA EPPLEY   PTCLDY    20  14  77 SE5       30.21S WCI  13
6HR MIN TEMP:  20; 6HR MAX TEMP:  24;

BEATRICE       CLOUDY    24  17  74 SW5       30.20F WCI  18
FALLS CITY     MOCLDY    18  11  74 SW5       30.24F WCI  11
6HR MIN TEMP:  16; 6HR MAX TEMP:  24;

$$

NEZ044-045-051>053-067-100700-
OMAHA AREA

CITY           SKY/WX    TMP DP  RH WIND       PRES   REMARKS
OMAHA EPPLEY   PTCLDY    20  14  77 SE5       30.21S WCI  13
6HR MIN TEMP:  20; 6HR MAX TEMP:  24;

BLAIR          CLOUDY    19  14  79 S3        30.18S
OFFUTT AFB     MOCLDY    19  14  81 S2        30.21S
$$



USA.gov is the U.S. government's official web portal to all federal, state and local government web resources and services.